Regional Weather Roundup
Issued by NWS

Home | Current Version | Previous Version | Text Only | Print | Product List | Glossary Off
Versions: 1 2 3 4 5 6 7 8 9 10 11 12 13 14 15 16 17 18 19 20 21 22 23 24 25 26 27 28 29 30 31 32 33 34 35 36 37 38 39 40 41 42 43 44 45 46 47 48 49 50

016
ASUS43 KMKX 201311
RWRWI

WISCONSIN REGIONAL WEATHER ROUNDUP
NATIONAL WEATHER SERVICE MILWAUKEE/SULLIVAN WI
800 AM CDT SUN AUG 20 2017

NOTE: "FAIR" INDICATES FEW OR NO CLOUDS BELOW 12,000 FEET WITH NO
SIGNIFICANT WEATHER AND/OR OBSTRUCTIONS TO VISIBILITY.

WIZ001-002-006>008-014>016-023>028-201400-
NORTHWEST WISCONSIN

CITY           SKY/WX    TMP DP  RH WIND       PRES   REMARKS
SUPERIOR ARPT    N/A     61  61 100 CALM      29.86S
ASHLAND        SUNNY     66  63  90 SW8       29.90R
HAYWARD        CLOUDY    64  61  90 S7        29.92S
SIREN          CLOUDY    65  63  91 S7        29.89S
CUMBERLAND     CLOUDY    61  59  94 CALM      29.93S
RICE LAKE      CLOUDY    63  61  94 CALM      29.94S
CHETEK         CLOUDY    62  61  97 SE6       29.93F
LADYSMITH      CLOUDY    64  61  90 S5        29.97S
EAU CLAIRE     CLOUDY    65  61  87 S6        29.92F
MENOMONIE      MOSUNNY   63  62  96 E5        29.92F
NEW RICHMOND   CLOUDY    66  63  90 S9        29.90F
OSCEOLA        CLOUDY    66  66 100 S6        29.92F
$$

WIZ003>005-009-010-017-018-201400-
NORTH CENTRAL WISCONSIN

CITY           SKY/WX    TMP DP  RH WIND       PRES   REMARKS
MANITOWISH WTR SUNNY     61  61 100 S5        29.96F
ARBOR VITAE    CLOUDY    64  61  88 SW6       29.97F
WOODRUFF       CLOUDY    64  61  88 SW6       29.97F
RHINELANDER    CLOUDY    64  61  90 SW6       30.00R
EAGLE RIVER    SUNNY     62  61  95 SW3       29.98S
LAND O LAKES   SUNNY     61  61 100 S3        30.00R
PHILLIPS       CLOUDY    62  61  97 SW6       29.96S
TOMAHAWK         N/A     59  58  97 CALM      29.99F
MEDFORD        CLOUDY    61  59  94 S5        29.98S
MERRILL        CLOUDY    55  55 100 CALM      29.99F
$$

WIZ029-030-035-036-043>047-201400-
CENTRAL WISCONSIN

CITY           SKY/WX    TMP DP  RH WIND       PRES   REMARKS
WAUSAU         CLOUDY    60  58  92 SE5       29.98F
MOSINEE        MOSUNNY   57  57 100 CALM      30.00F
MARSHFIELD     CLOUDY    62  58  86 S3        29.97F
STEVENS POINT  CLOUDY    60  60  98 CALM      29.99F
WAUPACA        MOSUNNY   63  62  97 CALM      29.99F
WAUTOMA        CLOUDY    60  59  96 CALM      29.99F
WISC RAPIDS    CLOUDY    64  61  90 S3        29.99F
CAMP DOUGLAS   CLOUDY    63  61  94 SE6       29.97S
$$

WIZ011>013-019>022-031-037>040-048>050-201400-
NORTHEAST WISCONSIN

CITY           SKY/WX    TMP DP  RH WIND       PRES   REMARKS
ANTIGO         MOSUNNY   63  60  91 SW5       30.01S
SHAWANO        CLOUDY    63  60  89 CALM      30.00R
OCONTO         CLOUDY    63  60  90 CALM      30.00R
STURGEON BAY   SUNNY     68  63  84 S3        30.01S
GREEN BAY      CLOUDY    65  65 100 S6        30.00S FOG
MANITOWOC      SUNNY     69  62  78 CALM      30.02R
APPLETON       PTSUNNY   64  63  94 CALM      30.00R
CLINTONVILLE   CLOUDY    61  59  94 CALM      30.00S
OSHKOSH        MOSUNNY   66  62  87 S7        30.00S
$$

WIZ032>034-041-042-053>061-201400-
SOUTHWEST WISCONSIN

CITY           SKY/WX    TMP DP  RH WIND       PRES   REMARKS
LA CROSSE      CLOUDY    68  62  81 SE5       29.94F
SPARTA         CLOUDY    58  57  99 CALM      29.98R
VIROQUA        CLOUDY    64  62  92 CALM      29.98S
BOSCOBEL       CLOUDY    63  61  93 CALM      29.99R
PRAIRIE DU CHI CLOUDY    65  61  86 E5        29.97R
PLATTEVILLE    CLOUDY    65  64  94 SE5       30.00R
$$

WIZ056-057-062-063-064-067-068-201400-
SOUTH CENTRAL WISCONSIN

CITY           SKY/WX    TMP DP  RH WIND       PRES   REMARKS
REEDSBURG      CLOUDY    63  63  98 CALM      29.98R
BARABOO/DELLS  CLOUDY    66  61  82 S3        29.99R
LONE ROCK      MOSUNNY   65  63  93 E6        29.99R
MINERAL POINT  CLOUDY    66  63  88 SE7       30.01R
MADISON        CLOUDY    67  61  81 S7        29.99F
MIDDLETON      CLOUDY    68  63  85 SE3       30.00S
WATERTOWN      CLOUDY    64  64  97 SE3       30.01S
MONROE         CLOUDY    64  59  82 SE6       30.01R
JANESVILLE     PTSUNNY   66  63  88 VRB3      30.00F
$$

WIZ051-052-058>065-066-070>072-201400-
SOUTHEAST WISCONSIN

CITY           SKY/WX    TMP DP  RH WIND       PRES   REMARKS
MILWAUKEE      PTSUNNY   69  60  73 S6        30.02F
WAUKESHA       SUNNY     63  61  94 CALM      30.03F
MILWAUKEE/TIMM SUNNY     64  59  82 CALM      30.03F
RACINE         SUNNY     70  61  73 S5        30.04F
KENOSHA        CLOUDY    68  61  78 S6        30.03F
FOND DU LAC    CLOUDY    66  61  84 SE5       30.01F
SHEBOYGAN      MOSUNNY   66  64  93 CALM      30.02R
WEST BEND      CLOUDY    64  63  94 CALM      30.03S
JUNEAU         CLOUDY    62  60  93 CALM      30.03R
$$

LSZ147-162-201400-
LAKE SUPERIOR

STATION/POSITION TIME  TEMP    WIND        PRES    WAVE
                       AIR SEA DIR/SP/G            HT/PER
                 (UTC) (F)     (DEG/KT/KT) (MB)    (FT/S)
W MID LAKE BUOY  1250   63 59  210/ 12/ 12 1011.1F   1/ 3
DEVILS ISLAND    1300   67     180/  8/ 10 1011.1R
SAXON HARBOR     1240   67     200/  6/  8 1011.9S
$$

LMZ867-665-643>646-201400-
LAKE MICHIGAN

STATION/POSITION TIME  TEMP    WIND        PRES    WAVE
                       AIR SEA DIR/SP/G            HT/PER
                 (UTC) (F)     (DEG/KT/KT) (MB)    (FT/S)
S GREEN BAY BUOY 1300   70 71  210/ 10/ 12 1015.5
N MID LAKE BUOY  1250   68 67  210/  8/ 10 1016.0R   1/ 4
NORTHPORT PIER   1240   72      CALM  /  5 1015.6R
KEWAUNEE LAKESHO 1248   69     260/  5/  8 1015.2R
SHEBOYGAN LAKESH 1300   68     200/  3/  4 1016.2R
PORT WASHINGTON  1240   71      CALM  /  2 1017.3S
ATWATER BUOY     1239   70 70  180/  8/  8 1016.7R
MILWAUKEE LAKESH 1250   70     230/  5/  5   N/A
S MID LAKE BUOY  1250   72 71  180/  8/ 10 1017.0S   1/ 3
KENOSHA   LAKESH 1300   70     180/  4/  9 1016.6
$$

TC  - TEMPERATURE IN CELSIUS
VSB - VISIBILITY IN STATUTE MILES
WCI - WIND CHILL INDEX
HX  - HEAT INDEX





USA.gov is the U.S. government's official web portal to all federal, state and local government web resources and services.